Find OneWeb SL0523

NORAD ID: 54141 Int'l Des: 2022-138 Owner: ONEWEBN Country: UK Constellation: oneweb operational
LEOCIRCULARPOLARONEWEB_TYPE

实时位置

正在加载3D地球...

关于 OneWeb SL0523

正在加载描述...

即将过境

Passes for default location (London). Set your location on the main map for personalized predictions.

高度历史

Loading altitude history...

两行轨道根数

1 54141U 22138AE 26106.74322168 .00000026 00000-0 31640-4 0 9995
2 54141 87.9139 286.7045 0001024 105.7944 254.3302 13.20769579171190
Epoch: Apr 16, 2026 • Age: 14 hours

当前状态

高度 1211.3 km
速度 7.25 km/s
星下点 -85.90°S, 68.45°W
发射日期 Oct 22, 2022
运行时间 3.4 years
类型 internet

技术详情

分类 Payload
质量 148.00 kg
干质量 140.00 kg
总质量 148.00 kg
长度 1.30 m
直径 1.00 m
跨度 5.00 m
形状 Trapezoid+2 pan
制造商 ONEWUS
平台类型 ARROW
阶段状态 In Orbit
所有者/国家 ONEWEBN/UK

Most Searched